Smithfield, NC

2:11 PM EDT on September 17, 2019 (GMT -0400)
Johnston County

Weather History for KJNX - August, 2019

Change the Weather History Date:

Saturday, August 24, 2019

  Actual Average Record
Temperature  
Mean Temperature 68 °F -  
Max Temperature 73 °F 87 °F 100 °F (1968)
Min Temperature 64 °F 64 °F 55 °F (1969)
Cooling Degree Days 4    
Growing Degree Days 18 (Base 50)    
Moisture  
Dew Point 69 °F    
Average Humidity 97    
Maximum Humidity 100    
Minimum Humidity 83    
Precipitation  
Precipitation 0.57 in - - ()
Sea Level Pressure  
Sea Level Pressure 30.09 in    
Wind  
Wind Speed 5 mph ()    
Max Wind Speed 10 mph    
Max Gust Speed -    
Visibility 9.1 miles    
Events Rain    
Averages and records for this station are not official NWS values.
T = Trace of Precipitation, MM = Missing Value Source: Averaged Metar Reports

Daily Weather History Graph

Daily Weather History Graph

Search for Another Location

Airport or City:

Astronomy

Aug. 24, 2019 Rise Set
Actual Time 6:39 AM EDT 7:51 PM EDT
Civil Twilight 6:13 AM EDT 8:18 PM EDT
Nautical Twilight 5:41 AM EDT 8:49 PM EDT
Astronomical Twilight 5:08 AM EDT 9:22 PM EDT
Moon 12:35 AM EDT (8/24) 3:00 PM EDT (8/24)
Length of Visible Light 14h 05m
Length of Day
13h 12m
Last Quarter, 39% of the Moon is Illuminated
Aug 24
Last Quarter
Aug 30
New
Sep 5
First Quarter
Sep 14
Full
Sep 21
Last Quarter

Hourly Weather History & Observations

Time (EDT) Temp. Dew Point Humidity Pressure Visibility Wind Dir Wind Speed Gust Speed Precip Events Conditions
12:15 AM 73.4 °F 73.4 °F 100% 30.03 in 10.0 mi Calm Calm - N/A   Mostly Cloudy
12:35 AM 73.4 °F 73.4 °F 100% 30.03 in 10.0 mi Calm Calm - N/A   Scattered Clouds
12:55 AM 73.4 °F 73.4 °F 100% 30.04 in 10.0 mi Calm Calm - N/A   Scattered Clouds
1:35 AM 73.4 °F 73.4 °F 100% 30.05 in 10.0 mi Calm Calm - N/A   Mostly Cloudy
1:55 AM 73.4 °F 73.4 °F 100% 30.04 in 10.0 mi NNE 4.6 mph - N/A   Overcast
2:15 AM 73.4 °F 73.4 °F 100% 30.03 in 10.0 mi North 4.6 mph - N/A   Mostly Cloudy
2:35 AM 73.4 °F 73.4 °F 100% 30.03 in 10.0 mi North 4.6 mph - N/A   Overcast
2:55 AM 73.4 °F 73.4 °F 100% 30.03 in 10.0 mi North 5.8 mph - N/A   Overcast
3:15 AM 73.4 °F 73.4 °F 100% 30.03 in 10.0 mi NE 9.2 mph - N/A   Overcast
3:35 AM 73.4 °F 71.6 °F 94% 30.03 in 10.0 mi NE 6.9 mph - N/A   Overcast
3:55 AM 71.6 °F 71.6 °F 100% 30.04 in 10.0 mi NE 6.9 mph - N/A   Overcast
4:15 AM 71.6 °F 71.6 °F 100% 30.04 in 7.0 mi North 10.4 mph - N/A   Overcast
4:35 AM 71.6 °F 71.6 °F 100% 30.04 in 7.0 mi NNE 9.2 mph - N/A   Overcast
4:55 AM 71.6 °F 71.6 °F 100% 30.04 in 10.0 mi NNE 8.1 mph - N/A   Overcast
5:15 AM 69.8 °F 69.8 °F 100% 30.04 in 7.0 mi NE 9.2 mph - N/A   Overcast
5:35 AM 69.8 °F 69.8 °F 100% 30.05 in 10.0 mi NNE 9.2 mph - N/A   Overcast
5:55 AM 69.8 °F 69.8 °F 100% 30.05 in 10.0 mi NNE 8.1 mph - N/A   Overcast
6:15 AM 69.8 °F 69.8 °F 100% 30.05 in 10.0 mi NE 6.9 mph - N/A   Overcast
6:35 AM 69.8 °F 69.8 °F 100% 30.06 in 10.0 mi NNE 9.2 mph - N/A   Overcast
6:55 AM 69.8 °F 69.8 °F 100% 30.07 in 10.0 mi North 8.1 mph - N/A   Overcast
7:15 AM 69.8 °F 69.8 °F 100% 30.08 in 10.0 mi NE 6.9 mph - N/A   Overcast
7:35 AM 69.8 °F 69.8 °F 100% 30.09 in 10.0 mi NE 5.8 mph - N/A   Overcast
7:55 AM 69.8 °F 68.0 °F 94% 30.10 in 10.0 mi NNE 6.9 mph - N/A   Overcast
8:15 AM 69.8 °F 68.0 °F 94% 30.10 in 10.0 mi NE 8.1 mph - N/A   Overcast
8:35 AM 69.8 °F 68.0 °F 94% 30.11 in 10.0 mi NNE 9.2 mph - N/A   Overcast
9:15 AM 69.8 °F 68.0 °F 94% 30.11 in 10.0 mi NE 5.8 mph - N/A   Overcast
9:35 AM 69.8 °F 68.0 °F 94% 30.11 in 10.0 mi NNE 6.9 mph - N/A   Overcast
9:55 AM 69.8 °F 68.0 °F 94% 30.12 in 10.0 mi NNE 8.1 mph - N/A   Overcast
10:15 AM 69.8 °F 68.0 °F 94% 30.12 in 10.0 mi NNE 8.1 mph - N/A   Overcast
10:35 AM 69.8 °F 68.0 °F 94% 30.12 in 10.0 mi NNE 6.9 mph - N/A   Overcast
10:55 AM 69.8 °F 68.0 °F 94% 30.12 in 10.0 mi NNE 8.1 mph - N/A   Overcast
11:15 AM 71.6 °F 68.0 °F 88% 30.12 in 10.0 mi NE 4.6 mph - N/A   Overcast
11:35 AM 71.6 °F 68.0 °F 88% 30.12 in 10.0 mi NE 5.8 mph - N/A   Overcast
11:55 AM 71.6 °F 68.0 °F 88% 30.12 in 10.0 mi NE 4.6 mph - N/A   Overcast
12:15 PM 71.6 °F 68.0 °F 88% 30.12 in 10.0 mi NE 6.9 mph - N/A   Overcast
12:35 PM 73.4 °F 68.0 °F 83% 30.12 in 10.0 mi NNE 4.6 mph - N/A   Overcast
12:55 PM 71.6 °F 68.0 °F 88% 30.11 in 10.0 mi NNE 9.2 mph - N/A   Overcast
1:15 PM 73.4 °F 68.0 °F 83% 30.11 in 10.0 mi NE 5.8 mph - N/A   Overcast
1:35 PM 73.4 °F 68.0 °F 83% 30.10 in 10.0 mi NE 6.9 mph - N/A   Overcast
2:15 PM 73.4 °F 68.0 °F 83% 30.10 in 10.0 mi NE 6.9 mph - N/A   Overcast
2:35 PM 71.6 °F 69.8 °F 94% 30.10 in 10.0 mi NNE 6.9 mph - N/A   Overcast
3:15 PM 69.8 °F 69.8 °F 100% 30.10 in 2.0 mi NNE 6.9 mph - 0.06 in Rain Heavy Rain
3:35 PM 69.8 °F 69.8 °F 100% 30.09 in 10.0 mi NE 9.2 mph - 0.09 in Rain Rain
3:55 PM 69.8 °F 69.8 °F 100% 30.09 in 10.0 mi NNE 5.8 mph - 0.10 in Rain Rain
4:15 PM 69.8 °F 69.8 °F 100% 30.09 in 5.0 mi NNE 5.8 mph - 0.03 in Rain Heavy Rain
4:35 PM 69.8 °F 69.8 °F 100% 30.10 in 7.0 mi NNE 6.9 mph - 0.07 in Rain Rain
4:55 PM 68.0 °F 68.0 °F 100% 30.10 in 7.0 mi North 6.9 mph - 0.10 in Rain Rain
5:15 PM 68.0 °F 68.0 °F 100% 30.09 in 5.0 mi NE 10.4 mph - 0.05 in Rain Rain
5:35 PM 68.0 °F 68.0 °F 100% 30.09 in 2.0 mi NE 8.1 mph - 0.18 in Rain Heavy Rain
5:55 PM 68.0 °F 68.0 °F 100% 30.09 in 2.5 mi NNE 8.1 mph - 0.30 in Rain Heavy Rain
6:15 PM 68.0 °F 68.0 °F 100% 30.09 in 7.0 mi North 3.5 mph - 0.03 in Rain Rain
6:35 PM 68.0 °F 68.0 °F 100% 30.09 in 10.0 mi NE 10.4 mph - 0.04 in Rain Light Rain
6:55 PM 68.0 °F 68.0 °F 100% 30.10 in 10.0 mi NNE 6.9 mph - 0.04 in Rain Rain
7:15 PM 68.0 °F 68.0 °F 100% 30.11 in 10.0 mi NNE 5.8 mph - N/A   Drizzle
7:35 PM 68.0 °F 68.0 °F 100% 30.11 in 10.0 mi NNE 6.9 mph - 0.01 in Rain Rain
7:55 PM 66.2 °F 64.4 °F 94% 30.11 in 10.0 mi North 6.9 mph - 0.01 in   Overcast
8:15 PM 64.4 °F 64.4 °F 100% 30.12 in 10.0 mi NNE 6.9 mph - N/A Rain Rain
8:35 PM 64.4 °F 64.4 °F 100% 30.12 in 10.0 mi NNE 5.8 mph - N/A   Drizzle
8:55 PM 64.4 °F 64.4 °F 100% 30.12 in 10.0 mi NNE 5.8 mph - N/A Rain Light Rain
9:15 PM 64.4 °F 64.4 °F 100% 30.13 in 10.0 mi NNE 4.6 mph - 0.01 in   Drizzle
9:35 PM 64.4 °F 64.4 °F 100% 30.13 in 10.0 mi North 4.6 mph - 0.01 in   Overcast
9:55 PM 64.4 °F 64.4 °F 100% 30.13 in 10.0 mi North 5.8 mph - 0.01 in   Overcast
10:35 PM 64.4 °F 64.4 °F 100% 30.15 in 10.0 mi NE 3.5 mph - N/A   Drizzle
10:55 PM 64.4 °F 64.4 °F 100% 30.15 in 7.0 mi NE 5.8 mph - 0.01 in   Heavy Drizzle
11:15 PM 64.4 °F 64.4 °F 100% 30.15 in 7.0 mi North 3.5 mph - N/A   Drizzle
11:35 PM 64.4 °F 64.4 °F 100% 30.15 in 10.0 mi North 4.6 mph - N/A   Light Drizzle
11:55 PM 64.4 °F 64.4 °F 100% 30.15 in 10.0 mi NNE 5.8 mph - N/A   Overcast